Torna al catalogo

COSMOS 2251 DEB

AttivoLEO
NORAD 37537·DEBRIS·🇷🇺 Russia

Lanciato Jun 16, 1993 da Plesetsk Cosmodrome

Loading…

Prossimi Passaggi (prossime 24 ore)

TLE

AggiornatoSource: Space-Track

Epoca: Sep 14, 2026, 08:22 UTC

1 37537U 93036BNS 26257.34929204  .00000292  00000-0  10417-3 0  9990
2 37537  74.0107 117.0354 0051628 193.4810 166.4968 14.37778587889940

Traccia COSMOS 2251 DEB in tempo reale con AllMySat

Download on the App Store